Time,TemperatureF,DewpointF,PressureIn,WindDirection,WindDirectionDegrees,WindSpeedMPH,WindSpeedGustMPH,Humidity,HourlyPrecipIn,Conditions,Clouds,dailyrainin,SoftwareType,DateUTC
2013-06-05 00:01:00,55.6,51.0,29.10,ESE,112,13.1,17.0,84,0.00,,,0.00,Rainwise IP-100,2013-06-05 05:01:00,
2013-06-05 00:06:00,55.6,51.0,29.10,SE,135,12.6,17.3,84,0.00,,,0.00,Rainwise IP-100,2013-06-05 05:06:00,
2013-06-05 00:11:00,55.4,50.5,29.10,SE,135,8.2,17.0,84,0.00,,,0.00,Rainwise IP-100,2013-06-05 05:11:00,
2013-06-05 00:16:00,55.4,50.5,29.10,SE,135,7.0,17.0,84,0.00,,,0.00,Rainwise IP-100,2013-06-05 05:16:00,
2013-06-05 00:21:00,55.4,50.5,29.10,ESE,112,13.3,14.9,84,0.00,,,0.00,Rainwise IP-100,2013-06-05 05:21:00,
2013-06-05 00:26:00,55.3,50.5,29.10,ESE,112,9.8,16.8,84,0.00,,,0.00,Rainwise IP-100,2013-06-05 05:26:00,
2013-06-05 00:31:00,55.4,50.5,29.10,ESE,112,12.4,13.8,84,0.00,,,0.00,Rainwise IP-100,2013-06-05 05:31:00,
2013-06-05 00:36:00,55.4,50.5,29.10,ESE,112,5.1,14.5,84,0.00,,,0.00,Rainwise IP-100,2013-06-05 05:36:00,
2013-06-05 00:41:00,55.3,50.5,29.11,SE,135,6.1,11.7,84,0.00,,,0.00,Rainwise IP-100,2013-06-05 05:41:00,
2013-06-05 00:46:00,55.3,50.5,29.10,SSE,157,5.8,9.8,84,0.00,,,0.00,Rainwise IP-100,2013-06-05 05:46:00,
2013-06-05 00:51:00,55.3,50.5,29.11,SSE,157,1.4,9.8,84,0.00,,,0.00,Rainwise IP-100,2013-06-05 05:51:00,
2013-06-05 00:56:00,55.4,50.5,29.10,SE,135,10.5,13.1,85,0.00,,,0.00,Rainwise IP-100,2013-06-05 05:56:00,
2013-06-05 01:01:00,55.4,50.5,29.10,ESE,112,11.9,11.9,85,0.00,,,0.00,Rainwise IP-100,2013-06-05 06:01:00,
2013-06-05 01:06:00,55.4,50.5,29.10,SE,135,4.0,13.1,85,0.00,,,0.00,Rainwise IP-100,2013-06-05 06:06:00,
2013-06-05 01:11:00,55.4,50.5,29.10,SE,135,12.1,16.1,85,0.00,,,0.00,Rainwise IP-100,2013-06-05 06:11:00,
2013-06-05 01:16:00,55.3,50.5,29.09,SE,135,7.9,15.9,85,0.00,,,0.00,Rainwise IP-100,2013-06-05 06:16:00,
2013-06-05 01:21:00,55.2,50.5,29.08,SE,135,11.2,16.6,85,0.00,,,0.00,Rainwise IP-100,2013-06-05 06:21:00,
2013-06-05 01:26:00,55.3,50.5,29.08,SE,135,11.4,14.5,85,0.00,,,0.00,Rainwise IP-100,2013-06-05 06:26:00,
2013-06-05 01:31:00,55.3,50.5,29.09,SE,135,4.9,13.3,85,0.00,,,0.00,Rainwise IP-100,2013-06-05 06:31:00,
2013-06-05 01:36:00,55.3,50.5,29.08,SE,135,7.9,13.8,85,0.00,,,0.00,Rainwise IP-100,2013-06-05 06:36:00,
2013-06-05 01:41:00,55.3,51.0,29.09,SSE,157,5.6,11.4,86,0.00,,,0.00,Rainwise IP-100,2013-06-05 06:41:00,
2013-06-05 01:46:00,55.3,51.0,29.09,SE,135,3.5,7.9,86,0.00,,,0.00,Rainwise IP-100,2013-06-05 06:46:00,
2013-06-05 01:51:00,55.3,51.0,29.10,SE,135,7.5,7.9,86,0.00,,,0.00,Rainwise IP-100,2013-06-05 06:51:00,
2013-06-05 01:56:00,55.3,51.0,29.10,SE,135,1.9,7.5,86,0.00,,,0.00,Rainwise IP-100,2013-06-05 06:56:00,
2013-06-05 02:01:00,55.3,51.0,29.10,SSW,202,0.0,5.6,86,0.00,,,0.00,Rainwise IP-100,2013-06-05 07:01:00,
2013-06-05 02:06:00,55.3,51.0,29.10,West,270,0.0,5.6,86,0.00,,,0.00,Rainwise IP-100,2013-06-05 07:06:00,
2013-06-05 02:11:00,55.3,51.0,29.10,SE,135,1.9,3.0,86,0.00,,,0.00,Rainwise IP-100,2013-06-05 07:11:00,
2013-06-05 02:16:00,55.3,51.0,29.10,SW,225,1.2,6.5,86,0.00,,,0.00,Rainwise IP-100,2013-06-05 07:16:00,
2013-06-05 02:21:00,55.3,51.0,29.10,SSE,157,2.1,7.5,86,0.00,,,0.00,Rainwise IP-100,2013-06-05 07:21:00,
2013-06-05 02:26:00,55.2,51.0,29.09,South,180,0.0,7.9,87,0.00,,,0.00,Rainwise IP-100,2013-06-05 07:26:00,
2013-06-05 02:31:00,55.1,51.0,29.09,SSE,157,7.9,7.9,87,0.00,,,0.00,Rainwise IP-100,2013-06-05 07:31:00,
2013-06-05 02:36:00,55.0,51.0,29.09,SSE,157,6.8,11.4,87,0.00,,,0.00,Rainwise IP-100,2013-06-05 07:36:00,
2013-06-05 02:41:00,55.0,51.0,29.09,SE,135,7.0,12.6,87,0.00,,,0.00,Rainwise IP-100,2013-06-05 07:41:00,
2013-06-05 02:46:00,54.9,51.0,29.09,SE,135,4.4,13.5,87,0.00,,,0.00,Rainwise IP-100,2013-06-05 07:46:00,
2013-06-05 02:51:00,54.9,51.0,29.09,NNW,337,0.0,9.6,87,0.00,,,0.00,Rainwise IP-100,2013-06-05 07:51:00,
2013-06-05 02:56:00,54.9,52.0,29.09,SE,135,6.3,9.3,88,0.00,,,0.00,Rainwise IP-100,2013-06-05 07:56:00,
2013-06-05 03:01:00,54.9,52.0,29.09,SSE,157,5.4,11.7,89,0.00,,,0.00,Rainwise IP-100,2013-06-05 08:01:00,
2013-06-05 03:06:00,54.8,52.0,29.10,SE,135,5.6,11.0,89,0.00,,,0.00,Rainwise IP-100,2013-06-05 08:06:00,
2013-06-05 03:11:00,54.8,52.0,29.10,SE,135,8.2,10.0,89,0.00,,,0.00,Rainwise IP-100,2013-06-05 08:11:00,
2013-06-05 03:16:00,54.8,52.0,29.09,SE,135,6.1,11.0,89,0.00,,,0.00,Rainwise IP-100,2013-06-05 08:16:00,
2013-06-05 03:21:00,54.7,52.0,29.09,SE,135,8.4,12.1,90,0.00,,,0.00,Rainwise IP-100,2013-06-05 08:21:00,
2013-06-05 03:26:00,54.6,52.0,29.09,SSE,157,5.8,11.2,90,0.00,,,0.00,Rainwise IP-100,2013-06-05 08:26:00,
2013-06-05 03:31:00,54.7,52.0,29.08,SSE,157,5.1,9.6,90,0.00,,,0.00,Rainwise IP-100,2013-06-05 08:31:00,
2013-06-05 03:36:00,54.7,52.0,29.08,SE,135,7.5,11.7,91,0.00,,,0.00,Rainwise IP-100,2013-06-05 08:36:00,
2013-06-05 03:41:00,54.4,53.0,29.08,SE,135,6.1,14.0,92,0.00,,,0.00,Rainwise IP-100,2013-06-05 08:41:00,
2013-06-05 03:46:00,54.3,53.0,29.07,SE,135,6.1,9.1,92,0.00,,,0.00,Rainwise IP-100,2013-06-05 08:46:00,
2013-06-05 03:51:00,54.2,52.0,29.08,SE,135,5.1,8.2,93,0.00,,,0.00,Rainwise IP-100,2013-06-05 08:51:00,
2013-06-05 03:56:00,54.1,52.0,29.08,SW,225,0.0,6.8,94,0.00,,,0.00,Rainwise IP-100,2013-06-05 08:56:00,
2013-06-05 04:01:00,54.1,52.0,29.07,SE,135,6.5,7.7,94,0.00,,,0.00,Rainwise IP-100,2013-06-05 09:01:00,
2013-06-05 04:06:00,54.1,53.0,29.07,SE,135,2.6,8.6,95,0.00,,,0.00,Rainwise IP-100,2013-06-05 09:06:00,
2013-06-05 04:11:00,54.0,53.0,29.06,SE,135,6.5,8.2,95,0.00,,,0.00,Rainwise IP-100,2013-06-05 09:11:00,
2013-06-05 04:16:00,54.1,53.0,29.06,SE,135,7.5,10.3,96,0.00,,,0.00,Rainwise IP-100,2013-06-05 09:16:00,
2013-06-05 04:21:00,54.1,53.0,29.06,SE,135,10.3,11.9,96,0.00,,,0.00,Rainwise IP-100,2013-06-05 09:21:00,
2013-06-05 04:26:00,53.8,53.0,29.05,SSE,157,6.1,11.9,96,0.00,,,0.00,Rainwise IP-100,2013-06-05 09:26:00,
2013-06-05 04:31:00,53.7,53.0,29.05,ESE,112,7.5,11.0,97,0.00,,,0.00,Rainwise IP-100,2013-06-05 09:31:00,
2013-06-05 04:36:00,53.8,53.5,29.05,SE,135,8.9,12.8,97,0.00,,,0.00,Rainwise IP-100,2013-06-05 09:36:00,
2013-06-05 04:41:00,53.9,53.5,29.05,SE,135,7.7,12.8,97,0.00,,,0.00,Rainwise IP-100,2013-06-05 09:41:00,
2013-06-05 04:46:00,54.0,53.5,29.06,SE,135,2.1,9.3,97,0.00,,,0.00,Rainwise IP-100,2013-06-05 09:46:00,
2013-06-05 04:51:00,54.0,53.5,29.05,SSE,157,4.2,10.3,97,0.00,,,0.00,Rainwise IP-100,2013-06-05 09:51:00,
2013-06-05 04:56:00,54.1,53.5,29.05,SE,135,7.7,9.1,97,0.00,,,0.00,Rainwise IP-100,2013-06-05 09:56:00,
2013-06-05 05:01:00,54.2,53.5,29.05,ESE,112,2.1,7.7,97,0.00,,,0.00,Rainwise IP-100,2013-06-05 10:01:00,
2013-06-05 05:06:00,54.3,54.0,29.05,SSE,157,3.7,7.0,97,0.00,,,0.00,Rainwise IP-100,2013-06-05 10:06:00,
2013-06-05 05:11:00,54.3,54.0,29.06,SE,135,6.8,6.8,97,0.00,,,0.00,Rainwise IP-100,2013-06-05 10:11:00,
2013-06-05 05:16:00,54.4,54.0,29.07,SSE,157,2.6,7.5,97,0.00,,,0.00,Rainwise IP-100,2013-06-05 10:16:00,
2013-06-05 05:21:00,54.5,54.0,29.06,ENE,67,0.0,3.5,97,0.00,,,0.00,Rainwise IP-100,2013-06-05 10:21:00,
2013-06-05 05:26:00,54.5,54.0,29.06,SE,135,2.1,2.6,97,0.00,,,0.00,Rainwise IP-100,2013-06-05 10:26:00,
2013-06-05 05:31:00,54.5,54.0,29.06,ESE,112,0.0,4.7,97,0.00,,,0.00,Rainwise IP-100,2013-06-05 10:31:00,
2013-06-05 05:36:00,54.5,54.0,29.07,ESE,112,0.0,4.0,97,0.00,,,0.00,Rainwise IP-100,2013-06-05 10:36:00,
2013-06-05 05:41:00,54.5,54.0,29.07,SE,135,2.8,4.0,97,0.00,,,0.00,Rainwise IP-100,2013-06-05 10:41:00,
2013-06-05 05:46:00,54.5,54.0,29.08,ENE,67,1.2,4.0,97,0.00,,,0.00,Rainwise IP-100,2013-06-05 10:46:00,
2013-06-05 05:51:00,54.6,54.0,29.07,SE,135,1.9,3.7,97,0.00,,,0.00,Rainwise IP-100,2013-06-05 10:51:00,
2013-06-05 05:56:00,54.7,54.0,29.07,ESE,112,1.9,3.7,97,0.00,,,0.00,Rainwise IP-100,2013-06-05 10:56:00,
2013-06-05 06:01:00,54.7,54.0,29.06,West,270,0.0,2.8,97,0.00,,,0.00,Rainwise IP-100,2013-06-05 11:01:00,
2013-06-05 06:06:00,54.6,54.0,29.06,SSE,157,3.0,4.0,97,0.00,,,0.00,Rainwise IP-100,2013-06-05 11:06:00,
2013-06-05 06:11:00,54.6,54.0,29.06,SE,135,1.6,6.5,97,0.00,,,0.00,Rainwise IP-100,2013-06-05 11:11:00,
2013-06-05 06:16:00,54.6,54.0,29.06,SE,135,4.4,7.7,97,0.00,,,0.00,Rainwise IP-100,2013-06-05 11:16:00,
2013-06-05 06:21:00,54.7,53.5,29.06,South,180,2.8,5.4,96,0.00,,,0.00,Rainwise IP-100,2013-06-05 11:21:00,
2013-06-05 06:26:00,54.7,53.5,29.05,SE,135,7.5,11.2,96,0.00,,,0.00,Rainwise IP-100,2013-06-05 11:26:00,
2013-06-05 06:31:00,54.7,53.5,29.06,SE,135,7.0,9.8,96,0.00,,,0.00,Rainwise IP-100,2013-06-05 11:31:00,
2013-06-05 06:36:00,54.8,54.0,29.06,SE,135,3.7,7.0,96,0.00,,,0.00,Rainwise IP-100,2013-06-05 11:36:00,
2013-06-05 06:41:00,54.8,54.0,29.06,SE,135,1.9,5.4,96,0.00,,,0.00,Rainwise IP-100,2013-06-05 11:41:00,
2013-06-05 06:46:00,54.8,54.0,29.06,SSE,157,1.4,4.4,96,0.00,,,0.00,Rainwise IP-100,2013-06-05 11:46:00,
2013-06-05 06:51:00,54.8,54.0,29.06,SSW,202,1.6,4.0,96,0.00,,,0.00,Rainwise IP-100,2013-06-05 11:51:00,
2013-06-05 06:56:00,54.9,54.0,29.06,ESE,112,0.0,4.0,96,0.00,,,0.00,Rainwise IP-100,2013-06-05 11:56:00,
2013-06-05 07:01:00,54.9,54.0,29.06,SE,135,0.0,4.7,96,0.00,,,0.00,Rainwise IP-100,2013-06-05 12:01:00,
2013-06-05 07:06:00,55.0,54.0,29.05,SE,135,3.3,3.7,96,0.00,,,0.00,Rainwise IP-100,2013-06-05 12:06:00,
2013-06-05 07:11:00,55.0,54.0,29.05,ESE,112,0.0,4.0,96,0.00,,,0.00,Rainwise IP-100,2013-06-05 12:11:00,
2013-06-05 07:16:00,55.0,54.0,29.05,SE,135,4.4,6.8,96,0.00,,,0.00,Rainwise IP-100,2013-06-05 12:16:00,
2013-06-05 07:21:00,54.9,54.0,29.05,SE,135,4.0,6.8,96,0.00,,,0.00,Rainwise IP-100,2013-06-05 12:21:00,
2013-06-05 08:27:00,54.8,55.0,29.06,East,90,0.0,0.0,99,0.00,,,0.00,Rainwise IP-100,2013-06-05 13:27:00,
2013-06-05 08:32:00,55.0,55.0,29.05,SE,135,4.7,4.7,99,0.00,,,0.00,Rainwise IP-100,2013-06-05 13:32:00,
2013-06-05 08:37:00,55.0,54.5,29.05,SE,135,3.3,8.2,98,0.00,,,0.00,Rainwise IP-100,2013-06-05 13:37:00,
2013-06-05 08:42:00,55.1,54.5,29.06,SE,135,2.8,4.4,98,0.00,,,0.00,Rainwise IP-100,2013-06-05 13:42:00,
2013-06-05 08:47:00,55.1,54.5,29.05,SE,135,5.1,5.8,98,0.00,,,0.00,Rainwise IP-100,2013-06-05 13:47:00,
2013-06-05 08:52:00,55.1,54.5,29.06,WSW,247,0.0,5.4,98,0.00,,,0.00,Rainwise IP-100,2013-06-05 13:52:00,
2013-06-05 08:57:00,55.0,54.5,29.06,SE,135,3.7,4.0,98,0.00,,,0.00,Rainwise IP-100,2013-06-05 13:57:00,
2013-06-05 09:02:00,55.1,54.5,29.06,SE,135,2.6,4.7,98,0.06,,,0.01,Rainwise IP-100,2013-06-05 14:02:00,
2013-06-05 09:07:00,55.2,54.5,29.05,SE,135,7.0,7.2,98,0.12,,,0.03,Rainwise IP-100,2013-06-05 14:07:00,
2013-06-05 11:11:00,56.9,56.0,29.04,SSE,157,0.0,4.4,96,10.74,,,1.79,Rainwise IP-100,2013-06-05 16:11:00,
2013-06-05 11:16:00,57.0,56.0,29.05,SE,135,4.4,4.7,96,10.74,,,0.00,Rainwise IP-100,2013-06-05 16:16:00,
2013-06-05 11:21:00,57.1,56.0,29.05,SE,135,3.3,8.2,96,0.00,,,0.00,Rainwise IP-100,2013-06-05 16:21:00,
2013-06-05 11:26:00,57.1,56.0,29.05,NNE,22,0.0,3.7,96,0.00,,,0.00,Rainwise IP-100,2013-06-05 16:26:00,
2013-06-05 11:31:00,57.2,56.0,29.05,SE,135,0.0,3.5,95,0.00,,,0.00,Rainwise IP-100,2013-06-05 16:31:00,
2013-06-05 11:36:00,57.3,56.5,29.05,SE,135,4.9,4.9,95,0.00,,,0.00,Rainwise IP-100,2013-06-05 16:36:00,
2013-06-05 11:41:00,57.3,56.5,29.04,East,90,0.0,6.3,95,0.00,,,0.00,Rainwise IP-100,2013-06-05 16:41:00,
2013-06-05 11:46:00,57.5,56.5,29.04,East,90,0.0,5.8,95,0.00,,,0.00,Rainwise IP-100,2013-06-05 16:46:00,
2013-06-05 11:51:00,57.7,56.5,29.04,SE,135,3.0,4.9,95,0.00,,,0.00,Rainwise IP-100,2013-06-05 16:51:00,
2013-06-05 11:56:00,57.9,57.0,29.04,NE,45,0.0,5.6,95,0.00,,,0.00,Rainwise IP-100,2013-06-05 16:56:00,
2013-06-05 12:01:00,58.2,56.5,29.04,SE,135,1.9,4.4,94,0.00,,,0.00,Rainwise IP-100,2013-06-05 17:01:00,
2013-06-05 12:06:00,58.5,57.0,29.04,ESE,112,0.0,4.0,94,0.00,,,0.00,Rainwise IP-100,2013-06-05 17:06:00,
2013-06-05 12:11:00,58.7,57.0,29.05,ESE,112,1.4,1.9,93,0.00,,,0.00,Rainwise IP-100,2013-06-05 17:11:00,
2013-06-05 12:16:00,58.9,56.5,29.05,SSE,157,0.0,2.8,92,0.00,,,0.00,Rainwise IP-100,2013-06-05 17:16:00,
2013-06-05 12:21:00,58.9,56.5,29.05,ESE,112,0.0,2.1,92,0.00,,,0.00,Rainwise IP-100,2013-06-05 17:21:00,
2013-06-05 12:26:00,58.9,56.5,29.05,SE,135,0.0,1.9,91,0.00,,,0.00,Rainwise IP-100,2013-06-05 17:26:00,
2013-06-05 12:31:00,59.0,56.5,29.05,SE,135,0.0,2.3,91,0.00,,,0.00,Rainwise IP-100,2013-06-05 17:31:00,
2013-06-05 12:36:00,59.1,56.5,29.05,SE,135,1.2,1.2,91,0.00,,,0.00,Rainwise IP-100,2013-06-05 17:36:00,
2013-06-05 12:41:00,59.2,56.5,29.04,SE,135,0.0,1.4,91,0.00,,,0.00,Rainwise IP-100,2013-06-05 17:41:00,
2013-06-05 12:46:00,59.2,56.5,29.05,SSW,202,0.0,1.4,91,0.00,,,0.00,Rainwise IP-100,2013-06-05 17:46:00,
2013-06-05 12:51:00,59.2,56.0,29.04,South,180,0.0,0.0,90,0.00,,,0.00,Rainwise IP-100,2013-06-05 17:51:00,
2013-06-05 12:56:00,59.2,56.0,29.04,South,180,0.0,1.4,90,0.00,,,0.00,Rainwise IP-100,2013-06-05 17:56:00,
2013-06-05 13:01:00,59.2,56.5,29.05,South,180,0.0,0.0,91,0.00,,,0.00,Rainwise IP-100,2013-06-05 18:01:00,
2013-06-05 13:06:00,59.1,56.5,29.04,South,180,0.0,1.4,91,0.00,,,0.00,Rainwise IP-100,2013-06-05 18:06:00,
2013-06-05 13:11:00,59.2,56.5,29.04,South,180,0.0,0.0,91,0.00,,,0.00,Rainwise IP-100,2013-06-05 18:11:00,
2013-06-05 13:16:00,59.2,56.5,29.04,ENE,67,0.0,1.9,91,0.00,,,0.00,Rainwise IP-100,2013-06-05 18:16:00,
2013-06-05 13:21:00,59.1,56.5,29.04,SSE,157,0.0,1.4,91,0.00,,,0.00,Rainwise IP-100,2013-06-05 18:21:00,
2013-06-05 13:26:00,59.0,56.5,29.03,SSE,157,0.0,1.9,91,0.00,,,0.00,Rainwise IP-100,2013-06-05 18:26:00,
2013-06-05 13:31:00,59.0,56.5,29.03,South,180,0.0,1.4,91,0.00,,,0.00,Rainwise IP-100,2013-06-05 18:31:00,
2013-06-05 13:36:00,59.0,56.5,29.03,SE,135,1.4,1.6,91,0.00,,,0.00,Rainwise IP-100,2013-06-05 18:36:00,
2013-06-05 13:41:00,59.2,56.5,29.03,SE,135,0.0,2.1,91,0.00,,,0.00,Rainwise IP-100,2013-06-05 18:41:00,
2013-06-05 13:46:00,59.7,56.5,29.02,SSW,202,0.0,2.8,90,0.00,,,0.00,Rainwise IP-100,2013-06-05 18:46:00,
2013-06-05 13:51:00,59.8,57.0,29.02,SSE,157,0.0,3.3,90,0.00,,,0.00,Rainwise IP-100,2013-06-05 18:51:00,
2013-06-05 13:56:00,59.4,56.0,29.01,SE,135,3.0,8.2,89,0.00,,,0.00,Rainwise IP-100,2013-06-05 18:56:00,
2013-06-05 14:01:00,59.1,56.0,29.02,SE,135,1.9,6.5,90,0.00,,,0.00,Rainwise IP-100,2013-06-05 19:01:00,
2013-06-05 14:06:00,59.6,56.5,29.02,SE,135,2.3,3.7,90,0.00,,,0.00,Rainwise IP-100,2013-06-05 19:06:00,
2013-06-05 14:11:00,59.9,56.5,29.02,ESE,112,2.1,3.0,89,0.00,,,0.00,Rainwise IP-100,2013-06-05 19:11:00,
2013-06-05 14:16:00,60.0,56.5,29.02,ESE,112,0.0,3.3,88,0.00,,,0.00,Rainwise IP-100,2013-06-05 19:16:00,
2013-06-05 14:21:00,60.7,56.5,29.02,ESE,112,0.0,2.1,87,0.00,,,0.00,Rainwise IP-100,2013-06-05 19:21:00,
2013-06-05 14:26:00,61.2,56.5,29.02,ESE,112,1.4,1.4,86,0.00,,,0.00,Rainwise IP-100,2013-06-05 19:26:00,
2013-06-05 14:31:00,60.8,56.5,29.01,ENE,67,2.6,3.0,85,0.00,,,0.00,Rainwise IP-100,2013-06-05 19:31:00,
2013-06-05 14:36:00,60.3,56.0,29.01,ENE,67,2.6,3.3,85,0.00,,,0.00,Rainwise IP-100,2013-06-05 19:36:00,
2013-06-05 14:41:00,61.0,56.0,29.01,NE,45,2.3,3.0,84,0.00,,,0.00,Rainwise IP-100,2013-06-05 19:41:00,
2013-06-05 14:46:00,62.0,56.5,29.01,NE,45,1.9,4.7,83,0.00,,,0.00,Rainwise IP-100,2013-06-05 19:46:00,
2013-06-05 14:51:00,62.0,56.5,29.02,ENE,67,0.0,3.3,83,0.00,,,0.00,Rainwise IP-100,2013-06-05 19:51:00,
2013-06-05 14:56:00,61.9,56.5,29.01,NE,45,4.2,6.1,83,0.00,,,0.00,Rainwise IP-100,2013-06-05 19:56:00,
2013-06-05 15:01:00,61.4,56.5,29.01,NE,45,5.6,6.8,84,0.00,,,0.00,Rainwise IP-100,2013-06-05 20:01:00,
2013-06-05 15:06:00,60.7,56.5,29.01,NE,45,3.7,6.5,86,0.00,,,0.00,Rainwise IP-100,2013-06-05 20:06:00,
2013-06-05 15:11:00,60.5,56.5,29.00,NE,45,5.1,5.6,87,0.00,,,0.00,Rainwise IP-100,2013-06-05 20:11:00,
2013-06-05 15:16:00,60.5,56.5,29.01,WNW,292,5.4,12.1,87,0.00,,,0.00,Rainwise IP-100,2013-06-05 20:16:00,
2013-06-05 15:21:00,60.6,56.0,29.01,WSW,247,2.6,17.3,85,0.06,,,0.01,Rainwise IP-100,2013-06-05 20:21:00,
2013-06-05 15:26:00,60.6,54.0,29.01,WNW,292,8.4,14.7,80,0.06,,,0.01,Rainwise IP-100,2013-06-05 20:26:00,
2013-06-05 15:31:00,60.4,53.5,29.01,WSW,247,5.1,11.4,78,0.00,,,0.01,Rainwise IP-100,2013-06-05 20:31:00,
2013-06-05 15:36:00,60.2,53.5,29.01,NW,315,2.1,12.6,78,0.00,,,0.01,Rainwise IP-100,2013-06-05 20:36:00,
2013-06-05 15:41:00,60.1,53.5,29.01,SW,225,10.0,12.4,79,0.00,,,0.01,Rainwise IP-100,2013-06-05 20:41:00,
2013-06-05 15:46:00,60.1,54.0,29.01,West,270,10.3,11.4,81,0.00,,,0.01,Rainwise IP-100,2013-06-05 20:46:00,
2013-06-05 15:51:00,59.9,54.5,29.01,WNW,292,6.8,14.2,83,0.00,,,0.01,Rainwise IP-100,2013-06-05 20:51:00,
2013-06-05 15:56:00,59.8,55.0,29.00,West,270,6.8,9.6,84,0.00,,,0.01,Rainwise IP-100,2013-06-05 20:56:00,
2013-06-05 16:01:00,59.7,54.5,29.00,WNW,292,4.2,11.4,85,0.00,,,0.01,Rainwise IP-100,2013-06-05 21:01:00,
2013-06-05 16:06:00,59.6,55.0,29.01,WNW,292,8.9,10.5,86,0.00,,,0.01,Rainwise IP-100,2013-06-05 21:06:00,
2013-06-05 16:11:00,59.5,56.0,29.01,WNW,292,8.2,11.7,88,0.00,,,0.01,Rainwise IP-100,2013-06-05 21:11:00,
2013-06-05 16:16:00,59.2,56.0,29.01,WNW,292,9.6,13.3,90,0.00,,,0.01,Rainwise IP-100,2013-06-05 21:16:00,
2013-06-05 16:21:00,59.0,56.0,29.01,WNW,292,4.0,10.5,90,0.00,,,0.01,Rainwise IP-100,2013-06-05 21:21:00,
2013-06-05 16:26:00,59.0,56.5,29.01,NNW,337,2.6,7.7,91,0.00,,,0.01,Rainwise IP-100,2013-06-05 21:26:00,
2013-06-05 16:31:00,59.0,56.0,29.01,North,360,2.6,9.1,90,0.00,,,0.01,Rainwise IP-100,2013-06-05 21:31:00,
2013-06-05 16:36:00,59.1,56.0,29.01,NW,315,1.6,8.4,90,0.00,,,0.01,Rainwise IP-100,2013-06-05 21:36:00,
2013-06-05 16:41:00,59.1,56.5,29.01,NNW,337,3.3,8.2,91,0.00,,,0.01,Rainwise IP-100,2013-06-05 21:41:00,
2013-06-05 16:46:00,59.0,56.5,29.01,NNE,22,4.0,7.7,91,0.00,,,0.01,Rainwise IP-100,2013-06-05 21:46:00,
2013-06-05 16:51:00,59.0,56.5,29.01,NNE,22,4.4,7.5,91,0.00,,,0.01,Rainwise IP-100,2013-06-05 21:51:00,
2013-06-05 16:56:00,59.2,56.5,29.01,NW,315,3.7,6.3,92,0.00,,,0.01,Rainwise IP-100,2013-06-05 21:56:00,
2013-06-05 17:01:00,59.4,56.5,29.02,WNW,292,2.8,8.6,91,0.00,,,0.01,Rainwise IP-100,2013-06-05 22:01:00,
2013-06-05 17:06:00,59.4,56.5,29.01,NW,315,4.0,6.8,90,0.00,,,0.01,Rainwise IP-100,2013-06-05 22:06:00,
2013-06-05 17:11:00,59.6,56.5,29.01,WNW,292,8.2,8.2,90,0.00,,,0.01,Rainwise IP-100,2013-06-05 22:11:00,
2013-06-05 17:16:00,59.7,56.0,29.01,WNW,292,6.1,8.4,89,0.00,,,0.01,Rainwise IP-100,2013-06-05 22:16:00,
2013-06-05 17:21:00,59.6,56.0,29.01,NW,315,8.9,9.6,89,0.00,,,0.01,Rainwise IP-100,2013-06-05 22:21:00,
2013-06-05 17:26:00,59.8,56.5,29.01,NNE,22,4.9,8.9,89,0.00,,,0.01,Rainwise IP-100,2013-06-05 22:26:00,
2013-06-05 17:31:00,60.0,56.5,29.01,NNE,22,7.2,11.0,89,0.00,,,0.01,Rainwise IP-100,2013-06-05 22:31:00,
2013-06-05 17:36:00,59.7,56.0,29.01,NNE,22,9.1,11.7,89,0.00,,,0.01,Rainwise IP-100,2013-06-05 22:36:00,
2013-06-05 17:41:00,59.3,56.5,29.01,NNE,22,9.6,14.2,90,0.00,,,0.01,Rainwise IP-100,2013-06-05 22:41:00,
2013-06-05 17:46:00,59.1,56.0,29.01,NNE,22,7.9,13.1,90,0.00,,,0.01,Rainwise IP-100,2013-06-05 22:46:00,
2013-06-05 17:51:00,59.0,56.0,29.01,NNE,22,9.6,10.0,90,0.00,,,0.01,Rainwise IP-100,2013-06-05 22:51:00,
2013-06-05 17:56:00,59.0,56.0,29.01,NNE,22,8.6,10.7,89,0.00,,,0.01,Rainwise IP-100,2013-06-05 22:56:00,
2013-06-05 18:01:00,58.9,56.0,29.01,NE,45,7.9,11.7,89,0.00,,,0.01,Rainwise IP-100,2013-06-05 23:01:00,
2013-06-05 18:06:00,58.8,56.0,29.01,North,360,5.4,11.2,90,0.00,,,0.01,Rainwise IP-100,2013-06-05 23:06:00,
2013-06-05 18:11:00,58.8,56.0,29.01,NNE,22,5.1,9.6,90,0.00,,,0.01,Rainwise IP-100,2013-06-05 23:11:00,
2013-06-05 18:16:00,58.7,56.0,29.01,NE,45,6.1,10.5,90,0.00,,,0.01,Rainwise IP-100,2013-06-05 23:16:00,
2013-06-05 18:21:00,58.6,56.5,29.01,NNE,22,9.8,9.8,91,0.00,,,0.01,Rainwise IP-100,2013-06-05 23:21:00,
2013-06-05 18:26:00,58.6,56.5,29.00,NE,45,7.9,10.7,91,0.00,,,0.01,Rainwise IP-100,2013-06-05 23:26:00,
2013-06-05 18:32:00,58.5,56.5,29.01,NE,45,7.5,10.0,91,0.00,,,0.01,Rainwise IP-100,2013-06-05 23:32:00,
2013-06-05 18:37:00,58.4,56.0,29.01,NNE,22,5.6,9.8,91,0.00,,,0.01,Rainwise IP-100,2013-06-05 23:37:00,
2013-06-05 18:42:00,58.2,56.0,29.01,NNE,22,7.0,8.2,91,0.00,,,0.01,Rainwise IP-100,2013-06-05 23:42:00,
2013-06-05 18:47:00,58.2,56.0,29.01,NNE,22,5.6,9.6,92,0.00,,,0.01,Rainwise IP-100,2013-06-05 23:47:00,
2013-06-05 18:52:00,58.2,56.0,29.01,NE,45,4.4,7.5,92,0.00,,,0.01,Rainwise IP-100,2013-06-05 23:52:00,
2013-06-05 18:57:00,58.2,56.0,29.01,NNE,22,4.2,6.8,92,0.00,,,0.01,Rainwise IP-100,2013-06-05 23:57:00,
2013-06-05 19:02:00,58.0,56.0,29.01,ENE,67,7.7,9.1,92,0.00,,,0.01,Rainwise IP-100,2013-06-06 00:02:00,
2013-06-05 19:07:00,57.8,56.0,29.01,NE,45,5.1,10.5,92,0.00,,,0.01,Rainwise IP-100,2013-06-06 00:07:00,
2013-06-05 19:12:00,57.8,56.0,29.01,ENE,67,7.0,7.7,92,0.00,,,0.01,Rainwise IP-100,2013-06-06 00:12:00,
2013-06-05 19:17:00,57.8,56.0,29.02,ESE,112,5.1,7.9,92,0.00,,,0.01,Rainwise IP-100,2013-06-06 00:17:00,
2013-06-05 19:22:00,57.8,56.0,29.02,ENE,67,5.1,8.2,92,0.00,,,0.01,Rainwise IP-100,2013-06-06 00:22:00,
2013-06-05 19:27:00,57.8,56.0,29.02,NE,45,3.7,6.5,92,0.00,,,0.01,Rainwise IP-100,2013-06-06 00:27:00,
2013-06-05 19:32:00,57.8,56.0,29.02,NNE,22,4.0,6.8,92,0.00,,,0.01,Rainwise IP-100,2013-06-06 00:32:00,
2013-06-05 19:37:00,57.7,55.0,29.02,ENE,67,5.1,7.0,92,0.00,,,0.01,Rainwise IP-100,2013-06-06 00:37:00,
2013-06-05 19:42:00,57.6,55.0,29.02,NE,45,4.0,9.1,92,0.00,,,0.01,Rainwise IP-100,2013-06-06 00:42:00,
2013-06-05 19:47:00,57.5,56.0,29.02,NNE,22,5.4,8.4,93,0.00,,,0.01,Rainwise IP-100,2013-06-06 00:47:00,
2013-06-05 19:52:00,57.4,56.0,29.03,NNE,22,5.6,6.8,93,0.00,,,0.01,Rainwise IP-100,2013-06-06 00:52:00,
2013-06-05 19:57:00,57.3,56.0,29.03,NE,45,6.1,7.7,93,0.00,,,0.01,Rainwise IP-100,2013-06-06 00:57:00,
2013-06-05 20:02:00,57.2,55.0,29.03,NE,45,5.8,7.9,93,0.00,,,0.01,Rainwise IP-100,2013-06-06 01:02:00,
2013-06-05 20:07:00,57.2,55.0,29.03,NNE,22,4.7,7.7,93,0.00,,,0.01,Rainwise IP-100,2013-06-06 01:07:00,
2013-06-05 20:12:00,57.2,55.0,29.03,NNE,22,4.9,7.7,93,0.00,,,0.01,Rainwise IP-100,2013-06-06 01:12:00,
2013-06-05 20:17:00,57.3,56.0,29.03,NE,45,7.0,7.0,93,0.00,,,0.01,Rainwise IP-100,2013-06-06 01:17:00,
2013-06-05 20:22:00,57.3,56.0,29.03,NNE,22,5.6,7.9,93,0.00,,,0.01,Rainwise IP-100,2013-06-06 01:22:00,
2013-06-05 20:27:00,57.3,56.0,29.04,NNE,22,6.3,7.5,93,0.00,,,0.01,Rainwise IP-100,2013-06-06 01:27:00,
2013-06-05 20:32:00,57.3,55.0,29.03,NNE,22,5.4,7.9,92,0.00,,,0.01,Rainwise IP-100,2013-06-06 01:32:00,
2013-06-05 20:37:00,57.2,54.5,29.03,NNE,22,4.4,6.3,92,0.00,,,0.01,Rainwise IP-100,2013-06-06 01:37:00,
2013-06-05 20:42:00,57.2,54.5,29.03,NNE,22,6.5,6.8,92,0.00,,,0.01,Rainwise IP-100,2013-06-06 01:42:00,
2013-06-05 20:47:00,57.2,54.5,29.04,NNE,22,4.2,6.5,92,0.00,,,0.01,Rainwise IP-100,2013-06-06 01:47:00,
2013-06-05 20:52:00,57.2,55.0,29.03,NNE,22,4.0,8.4,93,0.00,,,0.01,Rainwise IP-100,2013-06-06 01:52:00,
2013-06-05 20:57:00,57.0,55.0,29.03,NNE,22,4.9,8.4,93,0.00,,,0.01,Rainwise IP-100,2013-06-06 01:57:00,
2013-06-05 21:02:00,57.0,55.0,29.03,NNE,22,3.7,7.5,93,0.00,,,0.01,Rainwise IP-100,2013-06-06 02:02:00,
2013-06-05 21:07:00,57.0,55.0,29.04,NNE,22,6.1,7.9,93,0.00,,,0.01,Rainwise IP-100,2013-06-06 02:07:00,
2013-06-05 21:12:00,57.1,55.0,29.04,NNE,22,4.2,7.5,93,0.00,,,0.01,Rainwise IP-100,2013-06-06 02:12:00,
2013-06-05 21:17:00,57.1,55.0,29.04,NNW,337,3.0,6.8,93,0.00,,,0.01,Rainwise IP-100,2013-06-06 02:17:00,
2013-06-05 21:22:00,57.1,55.0,29.04,NNE,22,6.5,7.7,93,0.00,,,0.01,Rainwise IP-100,2013-06-06 02:22:00,
2013-06-05 21:27:00,57.1,55.0,29.04,NE,45,5.6,8.2,93,0.00,,,0.01,Rainwise IP-100,2013-06-06 02:27:00,
2013-06-05 21:32:00,57.1,55.0,29.04,North,360,3.5,9.1,93,0.00,,,0.01,Rainwise IP-100,2013-06-06 02:32:00,
2013-06-05 21:37:00,57.0,55.0,29.04,NNE,22,6.8,10.5,93,0.00,,,0.01,Rainwise IP-100,2013-06-06 02:37:00,
2013-06-05 21:42:00,57.0,55.0,29.04,NNE,22,8.2,10.5,93,0.00,,,0.01,Rainwise IP-100,2013-06-06 02:42:00,
2013-06-05 21:47:00,57.0,55.0,29.04,NNE,22,7.5,9.8,93,0.00,,,0.01,Rainwise IP-100,2013-06-06 02:47:00,
2013-06-05 21:52:00,57.1,54.5,29.05,NNE,22,5.4,8.9,92,0.00,,,0.01,Rainwise IP-100,2013-06-06 02:52:00,
2013-06-05 21:57:00,57.0,54.5,29.05,NNE,22,5.6,8.2,92,0.00,,,0.01,Rainwise IP-100,2013-06-06 02:57:00,
2013-06-05 22:02:00,57.0,54.5,29.05,NNE,22,5.6,10.5,92,0.00,,,0.01,Rainwise IP-100,2013-06-06 03:02:00,
2013-06-05 22:07:00,56.9,54.5,29.05,NNE,22,2.8,8.9,92,0.00,,,0.01,Rainwise IP-100,2013-06-06 03:07:00,
2013-06-05 22:12:00,56.8,54.5,29.05,NNE,22,4.4,7.2,92,0.00,,,0.01,Rainwise IP-100,2013-06-06 03:12:00,
2013-06-05 22:17:00,56.7,54.0,29.05,NNE,22,2.8,9.8,92,0.00,,,0.01,Rainwise IP-100,2013-06-06 03:17:00,
2013-06-05 22:22:00,56.7,54.0,29.05,NNE,22,4.9,8.4,92,0.00,,,0.01,Rainwise IP-100,2013-06-06 03:22:00,
2013-06-05 22:27:00,56.7,54.0,29.05,NNE,22,6.5,8.4,92,0.00,,,0.01,Rainwise IP-100,2013-06-06 03:27:00,
2013-06-05 22:32:00,56.6,54.0,29.05,NNE,22,6.8,9.8,92,0.00,,,0.01,Rainwise IP-100,2013-06-06 03:32:00,
2013-06-05 22:37:00,56.6,54.0,29.05,NNW,337,2.6,8.9,92,0.00,,,0.01,Rainwise IP-100,2013-06-06 03:37:00,
2013-06-05 22:42:00,56.6,54.0,29.05,NNE,22,2.1,6.8,92,0.00,,,0.01,Rainwise IP-100,2013-06-06 03:42:00,
2013-06-05 22:47:00,56.5,54.5,29.05,NNW,337,3.0,7.5,93,0.00,,,0.01,Rainwise IP-100,2013-06-06 03:47:00,
2013-06-05 22:52:00,56.4,54.5,29.05,NNE,22,2.3,6.8,93,0.00,,,0.01,Rainwise IP-100,2013-06-06 03:52:00,
2013-06-05 22:57:00,56.3,54.5,29.05,North,360,2.1,6.1,93,0.00,,,0.01,Rainwise IP-100,2013-06-06 03:57:00,
2013-06-05 23:01:00,56.3,54.5,29.05,WNW,292,2.3,7.2,93,0.00,,,0.01,Rainwise IP-100,2013-06-06 04:01:00,
2013-06-05 23:06:00,56.2,54.0,29.05,North,360,4.4,7.0,93,0.00,,,0.01,Rainwise IP-100,2013-06-06 04:06:00,
2013-06-05 23:11:00,56.2,54.0,29.05,NNE,22,4.0,9.1,93,0.00,,,0.01,Rainwise IP-100,2013-06-06 04:11:00,
2013-06-05 23:16:00,56.1,54.0,29.05,NNE,22,2.3,8.2,93,0.00,,,0.01,Rainwise IP-100,2013-06-06 04:16:00,
2013-06-05 23:21:00,56.1,54.0,29.04,NNW,337,4.7,7.0,93,0.00,,,0.01,Rainwise IP-100,2013-06-06 04:21:00,
2013-06-05 23:26:00,56.1,54.0,29.05,NW,315,5.6,9.3,93,0.00,,,0.01,Rainwise IP-100,2013-06-06 04:26:00,
2013-06-05 23:31:00,55.8,54.0,29.04,NNW,337,4.0,12.6,93,0.00,,,0.01,Rainwise IP-100,2013-06-06 04:31:00,
2013-06-05 23:36:00,55.2,53.5,29.04,NW,315,4.2,12.8,93,0.00,,,0.01,Rainwise IP-100,2013-06-06 04:36:00,
2013-06-05 23:41:00,54.7,53.0,29.05,NNE,22,3.5,11.2,93,0.00,,,0.01,Rainwise IP-100,2013-06-06 04:41:00,
2013-06-05 23:46:00,54.4,53.0,29.04,North,360,7.7,7.7,94,0.00,,,0.01,Rainwise IP-100,2013-06-06 04:46:00,
2013-06-05 23:51:00,54.0,52.0,29.04,NNW,337,4.9,10.3,94,0.00,,,0.01,Rainwise IP-100,2013-06-06 04:51:00,
2013-06-05 23:56:00,53.7,52.0,29.04,NNW,337,4.2,11.7,95,0.00,,,0.01,Rainwise IP-100,2013-06-06 04:56:00,